Location: Hopewell Observatory
(38.8698°N, 77.6988°W)
Time: 18:30:58
(UTC-04:00)

Daily predictions for brighter satellites

Satellite Brightness Start Highest point End
(mag) Time Altitude Azimuth Time Altitude Azimuth Time Altitude Azimuth
Cosmos 1812 Rocket 3.6 19:19:46 10° S 19:24:06 85° W 19:28:28 10° N
Aureole 2 Rocket 3.6 19:20:51 10° SSE 19:24:47 34° ESE 19:28:44 10° NE
Cosmos 1624 Rocket 4.2 19:23:07 10° N 19:28:11 48° ENE 19:33:11 10° SE
ATLAS CENTAUR R/B 3.5 19:26:57 10° SSW 19:31:15 52° ESE 19:43:43 10° NE
Meteor 1-22 Rocket 4.2 19:28:46 10° S 19:33:59 53° E 19:39:07 10° NNE
Cosmos 2219 Rocket 3.6 19:31:07 10° SW 19:36:25 42° WNW 19:41:46 10° N
Cosmos 921 Rocket 3.8 19:32:56 10° NNW 19:37:03 54° WSW 19:41:06 10° S
Cosmos 2233 Rocket 4.2 19:31:20 10° S 19:37:38 83° W 19:43:59 10° N
Tiangong 2 3.9 19:36:08 10° WSW 19:37:41 13° SW 19:39:14 10° S
HJ-1C 4.3 19:35:41 10° SE 19:38:37 29° ENE 19:41:34 10° NNE
USA 215 3.3 19:32:42 10° NE 19:39:15 73° SE 19:45:45 10° SW
Cosmos 1441 Rocket 3.4 19:36:28 10° NNW 19:40:12 72° W 19:43:55 10° S
Cosmos 2278 Rocket 2.4 19:35:33 10° NNW 19:41:13 76° WSW 19:46:50 10° SSE
Meteor 2-5 Rocket 4.1 19:36:38 10° NNW 19:42:16 72° W 19:47:46 10° S
METEOR-M 4.3 19:38:40 10° SE 19:43:48 51° ENE 19:48:59 10° N
Meteor 1-29 3.9 19:41:06 10° NE 19:44:09 27° E 19:47:10 10° SSE
Cosmos 2297 3.8 19:39:16 10° NNW 19:44:51 56° ENE 19:50:22 10° SE
Meteor 1-24 Rocket 3.6 19:41:13 10° N 19:46:53 71° E 19:52:19 10° SSE
Meteor 1-28 Rocket 3.1 19:43:18 10° NNE 19:47:02 78° ESE 19:50:44 10° S
Cosmos 1378 3.3 19:44:41 10° N 19:48:21 49° E 19:51:57 10° SSE
FENGYUN 3A 4.5 19:45:40 10° SE 19:50:13 29° ENE 19:54:49 10° N
SJ-6B 2.8 19:47:04 10° SSE 19:50:59 89° WSW 19:55:02 10° NNW
Cosmos 1707 3.4 19:47:11 10° NNW 19:51:00 58° W 19:54:46 10° S
Cosmos 1076 Rocket 3.9 19:48:21 10° N 19:52:27 41° ENE 19:56:33 10° SSE
Cosmos-2242 3.9 19:51:13 10° SSE 19:54:56 29° E 19:58:43 10° NNE
Cosmos 1452 Rocket 4.2 19:52:34 10° N 19:57:22 34° ENE 20:01:28 13° SE
Cosmos 1758 4.0 19:55:01 10° SSE 19:58:41 34° E 20:02:24 10° NNE
Cosmos 192 4.3 19:55:16 10° S 20:00:08 60° ESE 20:05:02 10° NNE
Cosmos 2369 Rocket 4.1 19:58:01 10° NNE 20:00:13 12° NE 20:01:47 11° ENE
Helios 1B rocket 2.4 19:56:46 10° NNE 20:00:51 61° ESE 20:04:53 10° S
Cosmos 1603 4.4 19:56:40 10° SSE 20:01:38 31° ESE 20:06:36 10° NE
SeaSat 1 3.3 19:59:55 10° NE 20:04:04 26° ESE 20:08:10 10° SSE
Cosmos 1408 Rocket 3.7 20:01:25 10° N 20:05:41 51° E 20:09:53 10° SSE
Resurs 01 Rocket 1.5 20:03:53 10° SSE 20:08:18 76° ENE 20:12:46 10° N
NOSS 3-2 (A) 3.5 20:04:46 10° SSW 20:10:48 90° NE 20:17:24 10° NNE
FengYun 1-2 T 4.2 20:06:01 10° SSE 20:11:27 63° ENE 20:16:53 10° N
Cosmos 2333 Rocket 4.3 20:06:41 10° WSW 20:11:41 30° WNW 20:16:43 10° N
Okean 3 Rocket 4.4 20:07:41 10° NNW 20:12:08 56° W 20:16:34 10° S
Resurs 1-3 3.6 20:08:03 10° SSE 20:12:22 64° ENE 20:16:44 10° N
CZ-4B DEB 3.2 20:15:35 32° ESE 20:16:31 40° ENE 20:19:38 10° N
Atlas Centaur 2 3.9 20:16:07 10° W 20:23:49 39° SSW 20:28:58 18° SE
ATLAS CENTAUR R/B 2.6 20:20:55 10° NW 20:24:48 39° WSW 20:28:23 10° S
Meteor 1-21 Rocket 4.2 20:21:01 10° N 20:26:30 58° ENE 20:31:13 14° SSE
GPS 2-04 Rocket1 4.5 20:26:12 10° SSW 20:27:41 15° S 20:27:41 15° S
ALOS 2.2 20:26:02 13° SSE 20:30:07 69° ENE 20:34:46 10° N
Cosmos 1743 Rocket 3.8 20:28:08 10° N 20:32:26 47° E 20:33:30 39° ESE
Cosmos 1269 Rocket 4.2 20:27:42 10° S 20:32:43 46° ESE 20:37:44 10° NNE
In-Cosmos 22 4.2 20:27:12 10° N 20:33:00 90° NW 20:38:46 10° S
Cosmos 1674 3.9 20:29:59 10° NNE 20:32:23 26° NE 20:32:23 26° NE
Nadezhda 4 Rocket 4.0 20:27:26 10° N 20:33:39 59° E 20:38:48 15° SSE
Spot 2 Rocket 4.2 20:33:09 10° S 20:38:04 54° W 20:43:01 10° NNW
Cosmos 1092 Rocket 4.2 20:32:37 10° N 20:38:34 46° ENE 20:40:57 32° SE
ASTRO E2 3.9 20:35:09 10° WSW 20:38:38 28° S 20:38:55 28° S
Cosmos 1048 Rocket 4.2 20:34:35 10° S 20:39:38 45° ESE 20:44:38 10° NNE
GP-B 4.2 20:36:35 10° NNE 20:39:11 27° NE 20:39:11 27° NE
NOSS 3-3 (A) 4.5 20:35:37 10° NW 20:43:10 88° WSW 20:48:48 22° SSE
NOSS 3-3 (C) 4.5 20:35:43 10° NNW 20:43:16 89° WSW 20:48:51 22° SSE
OAO 3 Rocket 3.4 20:40:34 10° WSW 20:45:14 54° S 20:46:04 47° SE
Helios 1A 4.2 20:42:16 10° S 20:46:13 42° W 20:50:13 10° NNW
NOSS 3-2 (C) 3.9 20:41:50 10° SW 20:47:50 64° NW 20:54:25 10° NNE
Envisat 4.2 20:50:02 26° NE 20:50:02 26° NE 20:53:16 10° N
CENTAUR R/B 3.4 20:45:46 10° S 20:48:51 27° SSE 20:48:51 27° SSE
Cosmos 1634 Rocket 4.2 20:49:15 35° SE 20:51:17 47° E 20:57:11 10° NNE
ATLAS 5 CENTAUR R/B 2.2 20:47:17 10° SW 20:51:59 64° NW 20:57:07 10° NNE
ASTEX 1 3.3 20:47:45 10° N 20:52:42 89° E 20:57:35 10° S
CZ-2D R/B 3.3 20:52:09 51° S 20:53:03 78° W 20:56:58 10° NNW
Cosmos 1953 3.4 20:50:24 10° SSW 20:54:14 45° W 20:58:04 10° N
SL-16 R/B 3.9 20:53:32 10° WSW 20:58:36 33° WNW 21:03:43 10° N
H-2A R/B 3.8 21:12:12 39° SW 21:12:50 43° W 21:16:35 10° NNW
ERS-1 Rocket 3.7 21:34:40 47° N 21:34:40 47° N 21:38:12 10° NNW
Cosmos 1627 Rocket 4.4 21:31:14 10° N 21:36:58 77° NNE 21:36:58 77° NNE
SeaSat 1 3.8 21:37:04 10° N 21:41:37 38° WNW 21:46:09 10° SW
Cosmos 2369 Rocket 2.8 21:39:30 10° NNW 21:43:35 49° N 21:43:35 49° N
Cosmos 839 Rocket 4.3 21:42:21 10° NNW 21:49:20 71° N 21:49:20 71° N
Cosmos 1943 Rocket 3.9 21:51:24 10° N 21:53:52 24° N 21:53:52 24° N
